• In Romania
  • List of Countries
  • For 7 days
  • Water Temperature
  • Satellite Maps
  • Weather Map
  • Weather Widgets
  • user-avatar
    Login

    Hourly Weather Morsko

    Today, 22 October, Monday

    Time Temperature Precipitation Wind Pressure Humidity
    00:00 +5°C° 0 mm 0 mps 751 mmHg 86%
    01:00 +5°C° 0 mm 0 mps 750 mmHg 87%
    02:00 +5°C° 0 mm 0 mps 750 mmHg 88%
    03:00 +4°C° 0 mm 0 mps 750 mmHg 88%
    04:00 +4°C° 0 mm 0 mps 750 mmHg 89%
    05:00 +4°C° 0 mm 0 mps 750 mmHg 88%
    06:00 +4°C° 0 mm 0 mps 750 mmHg 87%
    07:00 +5°C° 0 mm 0 mps 750 mmHg 87%
    08:00 +7°C° 0 mm 0 mps 749 mmHg 78%
    09:00 +9°C° 0 mm 0 mps 749 mmHg 70%
    10:00 +11°C° 0 mm 0 mps 749 mmHg 61%
    11:00 +11°C° 0 mm 0 mps 749 mmHg 58%
    12:00 +13°C° 0 mm 1 mps 748 mmHg 54%
    13:00 +14°C° 0 mm 1 mps 748 mmHg 51%
    14:00 +14°C° 0 mm 1 mps 747 mmHg 54%
    15:00 +13°C° 0 mm 1 mps 747 mmHg 57%
    16:00 +12°C° 0 mm 1 mps 747 mmHg 60%
    17:00 +10°C° 0 mm 2 mps 747 mmHg 64%
    18:00 +9°C° 0 mm 2 mps 747 mmHg 68%
    19:00 +8°C° 0 mm 2 mps 747 mmHg 72%
    20:00 +9°C° 0.1 mm 3 mps 747 mmHg 72%
    21:00 +9°C° 0.1 mm 3 mps 747 mmHg 72%
    22:00 +9°C° 0.1 mm 3 mps 747 mmHg 72%
    23:00 +8°C° 0.3 mm 4 mps 747 mmHg 76%

    Tomorrow, 23 October, Tuesday

    Time Temperature Precipitation Wind Pressure Humidity
    00:00 +8°C° 0.3 mm 4 mps 747 mmHg 79%
    01:00 +8°C° 0.3 mm 4 mps 747 mmHg 83%
    02:00 +7°C° 0.1 mm 4 mps 747 mmHg 85%
    03:00 +6°C° 0.1 mm 4 mps 747 mmHg 86%
    04:00 +5°C° 0.1 mm 4 mps 747 mmHg 88%
    05:00 +5°C° 0 mm 4 mps 746 mmHg 89%
    06:00 +5°C° 0 mm 4 mps 746 mmHg 89%
    07:00 +4°C° 0 mm 4 mps 746 mmHg 89%
    08:00 +5°C° 0 mm 5 mps 746 mmHg 81%
    09:00 +6°C° 0 mm 5 mps 745 mmHg 73%
    10:00 +7°C° 0 mm 6 mps 745 mmHg 65%
    11:00 +7°C° 0.3 mm 6 mps 744 mmHg 65%
    12:00 +7°C° 0.3 mm 6 mps 743 mmHg 65%
    13:00 +6°C° 0.3 mm 7 mps 742 mmHg 65%
    14:00 +6°C° 0.2 mm 7 mps 741 mmHg 66%
    15:00 +6°C° 0.2 mm 8 mps 739 mmHg 66%
    16:00 +7°C° 0.2 mm 8 mps 738 mmHg 67%
    17:00 +6°C° 0.7 mm 8 mps 738 mmHg 71%
    18:00 +6°C° 0.7 mm 9 mps 737 mmHg 74%
    19:00 +6°C° 0.7 mm 9 mps 736 mmHg 78%
    20:00 +6°C° 0.7 mm 9 mps 735 mmHg 79%
    21:00 +7°C° 0.7 mm 10 mps 734 mmHg 79%
    22:00 +7°C° 0.7 mm 10 mps 733 mmHg 80%
    23:00 +8°C° 0.8 mm 10 mps 732 mmHg 81%

    Day after tomorrow, 24 October, Wednesday

    Time Temperature Precipitation Wind Pressure Humidity
    00:00 +8°C° 0.8 mm 10 mps 731 mmHg 81%
    01:00 +9°C° 0.8 mm 10 mps 730 mmHg 82%
    02:00 +9°C° 1.4 mm 10 mps 729 mmHg 82%
    03:00 +8°C° 1.4 mm 10 mps 728 mmHg 83%
    04:00 +8°C° 1.4 mm 11 mps 728 mmHg 83%
    05:00 +7°C° 1.2 mm 10 mps 728 mmHg 77%
    06:00 +6°C° 1.2 mm 10 mps 729 mmHg 72%
    07:00 +3°C° 1.2 mm 10 mps 730 mmHg 66%
    08:00 +4°C° 0.1 mm 11 mps 731 mmHg 60%
    09:00 +4°C° 0.1 mm 11 mps 732 mmHg 54%
    10:00 +4°C° 0.1 mm 12 mps 732 mmHg 48%
    11:00 +4°C° 0.2 mm 12 mps 733 mmHg 50%
    12:00 +4°C° 0.2 mm 11 mps 733 mmHg 53%
    13:00 +5°C° 0.2 mm 10 mps 734 mmHg 55%
    14:00 +5°C° 0.1 mm 10 mps 735 mmHg 56%
    15:00 +5°C° 0.1 mm 10 mps 735 mmHg 57%
    16:00 +3°C° 0.1 mm 9 mps 736 mmHg 58%
    17:00 +3°C° 0 mm 9 mps 737 mmHg 58%
    18:00 +4°C° 0 mm 8 mps 737 mmHg 58%
    19:00 +2°C° 0 mm 8 mps 738 mmHg 58%
    20:00 +3°C° 0 mm 7 mps 738 mmHg 59%
    21:00 +3°C° 0 mm 7 mps 739 mmHg 60%
    22:00 +2°C° 0 mm 7 mps 739 mmHg 61%
    23:00 +2°C° 0 mm 7 mps 740 mmHg 64%

    25 October, Thursday

    Time Temperature Precipitation Wind Pressure Humidity
    00:00 +2°C° 0 mm 7 mps 740 mmHg 67%
    01:00 +2°C° 0 mm 6 mps 740 mmHg 69%
    02:00 +2°C° 0 mm 6 mps 741 mmHg 71%
    03:00 +1°C° 0 mm 6 mps 741 mmHg 73%
    04:00 +1°C° 0 mm 6 mps 741 mmHg 75%
    05:00 +1°C° 0 mm 6 mps 741 mmHg 77%
    06:00 +1°C° 0 mm 6 mps 741 mmHg 80%
    07:00 +1°C° 0 mm 6 mps 742 mmHg 82%
    08:00 +2°C° 0 mm 6 mps 741 mmHg 79%
    09:00 +3°C° 0 mm 6 mps 741 mmHg 76%
    10:00 +4°C° 0 mm 7 mps 741 mmHg 73%
    11:00 +4°C° 0.1 mm 7 mps 741 mmHg 74%
    12:00 +5°C° 0.1 mm 7 mps 740 mmHg 75%
    13:00 +5°C° 0.1 mm 7 mps 740 mmHg 76%
    14:00 +6°C° 0.1 mm 7 mps 739 mmHg 78%
    15:00 +7°C° 0.1 mm 6 mps 739 mmHg 79%
    16:00 +8°C° 0.1 mm 6 mps 739 mmHg 81%
    17:00 +8°C° 0.1 mm 6 mps 739 mmHg 82%
    18:00 +8°C° 0.1 mm 6 mps 739 mmHg 83%
    19:00 +9°C° 0.1 mm 6 mps 739 mmHg 84%
    20:00 +9°C° 0.1 mm 6 mps 739 mmHg 84%
    21:00 +8°C° 0.1 mm 6 mps 739 mmHg 85%
    22:00 +8°C° 0.1 mm 6 mps 739 mmHg 85%
    23:00 +8°C° 0 mm 6 mps 739 mmHg 86%

    26 October, Friday

    Time Temperature Precipitation Wind Pressure Humidity
    00:00 +8°C° 0 mm 5 mps 739 mmHg 86%
    01:00 +7°C° 0 mm 5 mps 739 mmHg 86%
    02:00 +7°C° 0 mm 5 mps 739 mmHg 87%
    03:00 +7°C° 0 mm 5 mps 739 mmHg 87%
    04:00 +6°C° 0 mm 5 mps 739 mmHg 87%
    05:00 +6°C° 0 mm 4 mps 739 mmHg 88%
    06:00 +6°C° 0 mm 4 mps 738 mmHg 88%
    07:00 +6°C° 0 mm 4 mps 738 mmHg 88%
    08:00 +8°C° 0 mm 4 mps 738 mmHg 81%
    09:00 +10°C° 0 mm 4 mps 738 mmHg 73%
    10:00 +12°C° 0 mm 5 mps 738 mmHg 66%
    11:00 +13°C° 0 mm 5 mps 738 mmHg 64%
    12:00 +13°C° 0 mm 5 mps 737 mmHg 62%
    13:00 +14°C° 0 mm 4 mps 737 mmHg 61%
    14:00 +13°C° 0 mm 4 mps 737 mmHg 63%
    15:00 +13°C° 0 mm 3 mps 736 mmHg 66%
    16:00 +12°C° 0 mm 3 mps 736 mmHg 69%
    17:00 +11°C° 0 mm 3 mps 736 mmHg 74%
    18:00 +10°C° 0 mm 2 mps 736 mmHg 78%
    19:00 +9°C° 0 mm 2 mps 736 mmHg 82%
    20:00 +9°C° 0 mm 2 mps 736 mmHg 84%
    21:00 +9°C° 0 mm 2 mps 736 mmHg 85%
    22:00 +8°C° 0 mm 2 mps 736 mmHg 86%
    23:00 +8°C° 0 mm 2 mps 736 mmHg 86%

    27 October, Saturday

    Time Temperature Precipitation Wind Pressure Humidity
    00:00 +8°C° 0 mm 2 mps 735 mmHg 87%
    01:00 +8°C° 0 mm 2 mps 735 mmHg 87%
    02:00 +8°C° 0 mm 2 mps 735 mmHg 86%
    03:00 +8°C° 0 mm 2 mps 734 mmHg 86%
    04:00 +8°C° 0 mm 2 mps 734 mmHg 86%
    05:00 +8°C° 0 mm 2 mps 734 mmHg 87%
    06:00 +8°C° 0 mm 2 mps 733 mmHg 88%
    07:00 +8°C° 0 mm 2 mps 733 mmHg 89%
    08:00 +10°C° 0 mm 3 mps 733 mmHg 83%
    09:00 +12°C° 0 mm 3 mps 732 mmHg 78%
    10:00 +14°C° 0 mm 4 mps 732 mmHg 73%
    11:00 +15°C° 0 mm 4 mps 731 mmHg 69%
    12:00 +16°C° 0 mm 5 mps 731 mmHg 66%
    13:00 +17°C° 0 mm 6 mps 730 mmHg 63%
    14:00 +17°C° 0.1 mm 5 mps 730 mmHg 65%
    15:00 +17°C° 0.1 mm 4 mps 729 mmHg 67%
    16:00 +17°C° 0.1 mm 4 mps 729 mmHg 70%
    17:00 +15°C° 0 mm 4 mps 729 mmHg 71%
    18:00 +15°C° 0 mm 4 mps 729 mmHg 73%
    19:00 +14°C° 0 mm 5 mps 730 mmHg 75%
    20:00 +14°C° 0 mm 4 mps 730 mmHg 78%
    21:00 +13°C° 0 mm 3 mps 730 mmHg 80%
    22:00 +13°C° 0 mm 3 mps 730 mmHg 83%
    23:00 +12°C° 0.1 mm 3 mps 730 mmHg 85%

    28 October, Sunday

    Time Temperature Precipitation Wind Pressure Humidity
    00:00 +12°C° 0.1 mm 3 mps 730 mmHg 86%
    01:00 +11°C° 0.1 mm 3 mps 731 mmHg 88%
    02:00 +11°C° 0.1 mm 3 mps 731 mmHg 89%
    03:00 +12°C° 0.1 mm 2 mps 731 mmHg 90%
    04:00 +10°C° 0.1 mm 2 mps 731 mmHg 90%
    05:00 +10°C° 0.5 mm 2 mps 731 mmHg 90%
    06:00 +10°C° 0.5 mm 2 mps 731 mmHg 90%
    07:00 +10°C° 0.5 mm 3 mps 731 mmHg 90%
    08:00 +11°C° 0.6 mm 3 mps 732 mmHg 89%
    09:00 +11°C° 0.6 mm 3 mps 732 mmHg 88%
    10:00 +11°C° 0.6 mm 3 mps 732 mmHg 87%
    11:00 +12°C° 0.1 mm 3 mps 732 mmHg 84%
    12:00 +14°C° 0.1 mm 2 mps 732 mmHg 81%
    13:00 +15°C° 0.1 mm 2 mps 732 mmHg 78%
    14:00 +14°C° 0 mm 2 mps 732 mmHg 80%
    15:00 +14°C° 0 mm 2 mps 732 mmHg 83%
    16:00 +13°C° 0 mm 2 mps 732 mmHg 85%
    17:00 +13°C° 0 mm 2 mps 733 mmHg 86%
    18:00 +13°C° 0 mm 2 mps 733 mmHg 87%
    19:00 +13°C° 0 mm 2 mps 733 mmHg 88%
    20:00 +13°C° 0 mm 2 mps 733 mmHg 87%
    21:00 +13°C° 0 mm 2 mps 734 mmHg 87%
    22:00 +13°C° 0 mm 2 mps 734 mmHg 87%
    23:00 +13°C° 0 mm 2 mps 734 mmHg 88%
    Show more